Location: Burbank
(38.7788°N, 114.0429°W)
Time: 20:45:28
(UTC+00:00)

Vanguard 2 - Pass Details

Date: 13 May 2026
Orbit: 553 x 2894 km, 32.9° (Epoch: 6 June)

Event Time Altitude Azimuth Distance (km) Brightness Sun altitude
Rises 16:26:32 0° 279° (W) 5,871 11.6 45.0°
Reaches altitude 10° 16:31:56 10° 267° (W) 4,431 11.1 46.1°
Maximum altitude 16:39:57 22° 223° (SW) 2,818 10.4 47.6°
Drops below altitude 10° 16:45:44 10° 175° (S) 3,065 10.9 48.7°
Sets 16:48:40 0° 159° (SSE) 3,711 11.4 49.2°
